STARLINK-32657, 62475

Orbit data source: Space-Track

STARLINK-32657, 62475 is a payload satellite owned by SpaceX/Seattle (US) in LEO that was launched on Tue, 31 Dec 2024 UTC via an FALCON 9 launch vehicle from the Air Force Eastern Test Range (AFETR). Payload-class satellites include a variety of spacecraft equipped with specific instruments for various scientific and technological missions. These include communications satellites like Starlink; space stations such as the ISS; scientific satellites like the Hubble; Earth observation satellites from companies like Planet Labs, Umbra, and HawkEye 360; GPS; miniature CubeSats for education and research; and military/defense satellites.

Loading next visibility...
Identifier
62475, 2024-254P
Orbit
LEO
Last TLE update
14 hours ago
Origin
Manufacturer
SpaceX/Seattle
Mission
Operational Commercial Communications
Bus & Motor
STARLINK V2M, Unknown motor
Mass
730 kg wet, ~700 kg dry
Launch date (UTC)
2024-12-31 (6 months ago)
Launch vehicle
FALCON 9
Launch site
Air Force Eastern Test Range (AFETR)
Object type
Payload
Rocket body
Debris
Shape & HBR
Box + 2 Pan, 29 m
Radar Cross Section
33.884 m², Large (>1 m²)

Expand to show TLE details & history

TLE from 14 hours ago
0 STARLINK-32657
1 62475U 24254P   25189.72465338  .00012695  00000-0  47004-3 0  9995
2 62475  43.0003 317.4543 0000051 198.5308 161.5541 15.27580725 30157
Epoch: 2025-07-08T17:23Z
TLE epoch observation values (Epoch: 2025-07-08T17:23:30.052Z)
Latitude
-0.00005°
Longitude
129.6635°
Altitude
482.856 km
Speed
7.626 km/s
True Right ascension
21h 09m 49s
True Declination
0° 00' 00"
Sunlit
Object was in full shadow at epoch
Visualization orbit readout
Latitude
-11.9898°
Longitude
113.26688°
Altitude
485.126 km
Speed
7.624 km/s
Apparent Right ascension
21h 16m 42s
Apparent Declination
-70° 26' 15"
Sunlit
Object is in full shadow
Visualization observer readout
Local Sidereal Time
19:35:47
Azimuth
171.154° S
Elevation
-21.858°
Doppler factor
1
Orbital elements
Apogee altitude
485.027 km
Perigee altitude
484.957 km
Semi-major axis
6,863.129 km
Eccentricity
0.00001
Inclination
43.0003°
RAAN
317.4543°
Arg. of periapsis
198.5308°
True anomaly
Unknown
Mean anomaly
161.5541°
Eccentric anomaly
Unknown
Mean motion
3.81733 °/min
Orbital period
94.31 mins
BSTAR
0.00047004
Loading maneuver chart data...
Loading SW <> Apogee altitude chart data...
Loading historical data...
Loading historical data...
Loading historical data...
Loading historical data...
Loading historical data...
Loading historical data...
Loading historical data...

STARLINK-32657 Visibility forecast

Observer location: undefined°, undefined°

Span
Click to sort rows by Start time (UTC) header in descending order
Start Az.
Max El. time (UTC)
Max El. Az.
Max El.
End time (UTC)
End Az.
5 mins2025-07-09 12:28:17.360Z235.474° WSW2025-07-09 12:30:17.360Z180.053° SSW42.469°2025-07-09 12:33:17.360Z76.547° E
5 mins2025-07-09 14:07:17.360Z283.691° WNW2025-07-09 14:09:17.360Z338.203° N38.468°2025-07-09 14:12:17.360Z69.183° E
6 mins2025-07-09 15:46:17.360Z293.121° NW2025-07-09 15:48:17.360Z329.635° NNW40.698°2025-07-09 15:52:17.360Z95.75° ESE
5 mins2025-07-09 17:25:17.360Z268.826° W2025-07-09 17:27:17.360Z221.438° SW31.237°2025-07-09 17:30:17.360Z145.54° SSE
|